Погода в Пуэрто-Аякучо

Венесуэла     5°38′42″N   67°36′20″W
темп.,
°C
ветер,
м/с
пор.,
м/с
влажн.,
%
обл.,
%
осадки,
мм/ч
давл.,
гПа
погр.,
м
17 апреля, сб
сб1723:00+24ю2289100 0.3 101139
02:00+23ю259656 0.8 1010160
05:00+23ю139694 0.1 1010114
08:00+25ююз118926 0.1 1013254
11:00+29св12715 3.6 1013925
14:00+31св136460 5.9 10101195
17:00+30ююв126580 1.7 1008643
20:00+25ююв228597 1.8 101031
18 апреля, вс
вс1823:00+24юв118784 0.1 101117
02:00+23вюв119095 0.1 101013
05:00+23в119177 0.0 101011
08:00+25в117938 0.0 1012202
11:00+32св125157 0.0 10121061
14:00+35ссз133997 0.0 10082188
17:00+28ююв236829 0.1 1008315
20:00+25вюв2279100 0.1 100945
19 апреля, пн
пн1923:00+24ююв1280100 0.0 101117
02:00+23ююв1186100 0.0 101016
05:00+22св1190100 0.0 101112
08:00+25юз0080100 0.0 1013165
11:00+31ссв1151100 0.0 10141170
14:00+35ю033899 0.0 10102444
17:00+32ююз234797 0.0 1008952
20:00+25ююв2279100 0.0 101037
20 апреля, вт
вт2023:00+24ююв1181100 0.0 101215
02:00+23юв1184100 0.0 101012
05:00+22в1183100 0.0 101111
08:00+24юв1169100 0.0 1013172
11:00+32св1146100 0.0 1014947
14:00+35зюз0235100 0.0 10102101
17:00+32сз0246100 0.0 1008235
20:00+27вюв1155100 0.0 100911
21 апреля, ср
ср2123:00+24юв226659 0.0 101124
02:00+23ююв1169100 0.0 101012
05:00+24ююв1167100 0.0 101132
08:00+26сз01619 0.0 1013191
11:00+33юз01405 0.0 10131112
14:00+35юз21356 0.0 10092416
17:00+34ююз213925 0.0 10071384
20:00+27юв34675 0.0 100969